User: anonymous   Login
Location: Unspecified
(0.0000°N, 0.0000°E)
Time: 10:18:00
(UTC+01:00)
Language:

YAOGAN 1 - Orbit

View from above orbital plane
View from above orbital plane
View from above satellite
View from above satellite

Ground track
Ground track

The orbit data is extracted from the following two-line orbital elements,

1 29092U 06015A   14326.87729095  .00000718  00000-0  97169-4 0  2228
2 29092 097.9884 321.9413 0001481 101.5197 321.2498 14.82043222463493
Epoch (UTC): 22 November 2014 21:03:17
Eccentricity: 0.0001481
inclination: 97.9884°
perigee height: 622 km
apogee height: 624 km
right ascension of ascending node: 321.9413°
argument of perigee: 101.5197°
revolutions per day: 14.82043222
mean anomaly at epoch: 321.2498°
orbit number at epoch: 46349

The dashed part of the orbit path shows where the satellite is in the earth's shadow,  

DLR